Regional Weather Roundup
Issued by NWS Jackson, KY

Home | Current Version | Previous Version | Graphics & Text | Print | Product List | Glossary On
Versions: 1 2 3 4 5 6 7 8 9 10 11 12 13 14 15 16 17 18 19 20 21 22 23 24 25 26 27 28 29 30 31 32 33 34 35 36 37 38 39 40 41 42 43 44 45 46 47 48 49 50
000
ASUS43 KJKL 200711
RWRJKL

EAST KENTUCKY HOURLY WEATHER ROUNDUP
NATIONAL WEATHER SERVICE JACKSON KY
300 AM EDT SUN APR 20 2014

NOTE: "FAIR" INDICATES FEW OR NO CLOUDS BELOW 12,000 FEET WITH
NO SIGNIFICANT WEATHER AND/OR OBSTRUCTIONS TO VISIBILITY.

* THESE REPORTS ARE NOT UNDER NWS QUALITY CONTROL AND MAY NOT
  REPORT WEATHER SUCH AS PRECIPITATION AND FOG.

KYZ079-080-083-085-087-088-110-112-115-119-120-200800
...EASTERN KENTUCKY...

CITY           SKY/WX    TMP DP  RH WIND       PRES   REMARKS
JACKSON        MOCLDY    55  31  39 VRB3      30.19F
LONDON         PTCLDY    53  36  52 N5        30.17F
SOMERSET*      CLEAR     52  36  54 N3        30.19F
MONTICELLO*    CLEAR     42  38  86 CALM      30.19F
WILLIAMSBURG*  CLEAR     52  41  66 CALM      30.18S
MIDDLESBORO*   MOCLDY    45  41  86 CALM      30.19F
HARLAN APT*    MOSUNNY   50  37  62 CALM      30.18F
BLACK MTN*       N/A     48  34  57 SE7         N/A
PIKEVILLE APT* CLEAR     57  36  44 SE5       30.19F
BIG SANDY*     PTSUNNY   52  35  53 NE5       30.20S
MOREHEAD APT*  SUNNY     55  30  38 MISG      30.23F
$$

KYZ035-036-041-042-044-050-067-078-099-200800
...CENTRAL KENTUCKY...

CITY           SKY/WX    TMP DP  RH WIND       PRES   REMARKS
MT STERLING*   PTCLDY    46  37  71 NE3       30.22F
FLEMING/MASON* CLEAR     50  34  53 NE7       30.23F
DANVILLE*      CLEAR     43  36  75 CALM      30.20F
LEXINGTON      CLEAR     48  36  63 NE9       30.20F
FRANKFORT      CLEAR     48  36  63 N3        30.20F
$$

KYZ091>093-OHZ055-061-077-WVZ005-015-034-035-042-200800
...SOUTHERN OHIO/WEST VIRGINIA...

CITY           SKY/WX    TMP DP  RH WIND       PRES   REMARKS
COVINGTON      PTCLDY    52  34  50 NE8       30.23F
COLUMBUS       PTCLDY    48  30  49 NE3       30.26F
DAYTON         PTCLDY    44  32  62 NE5       30.26F
WILMINGTON     CLEAR     40  32  73 NE8       30.24F WCI  34
HUNTINGTON     PTCLDY    53  32  44 N5        30.21F
CHARLESTON     MOCLDY    49  38  65 CALM      30.21F
PINEVILLE*     PTCLDY    45  41  86 MISG      30.28F
BECKLEY        MOCLDY    50  37  61 SE12      30.24F
BLUEFIELD      MOCLDY    51  37  58 VRB3      30.25F
$$

VAZ002-007-008-TNZ017-027-036-066-071-200800
...SOUTHWEST VIRGINIA/EAST TENNESSEE...

CITY           SKY/WX    TMP DP  RH WIND       PRES   REMARKS
WISE*          PTCLDY    52  32  46 CALM      30.23S
ABINGDON*      MOCLDY    52  37  55 E8        30.23S
BRISTOL        CLOUDY    49  40  71 CALM      30.20S
KNOXVILLE      CLOUDY    50  49  96 CALM      30.17S
OAK RIDGE      MOCLDY    48  44  86 CALM      30.19S
CROSSVILLE     CLEAR     45  39  79 CALM      30.19S HAZE
NASHVILLE      PTCLDY    52  42  69 CALM      30.17S
$$

...KEY TO REMARKS...
VSB - VISIBILITY IN MILES
WCI - WIND CHILL INDEX
HX  - HEAT INDEX

$$



USA.gov is the U.S. government's official web portal to all federal, state and local government web resources and services.